Datum;"Wasserstand in cm";"Stationsnummer: 5890801";"Stationsname: Wustrau UP, Steg";"Gew?sser: Wustrauer Rhin";"Fehlwerte: -777"
"20.03.2024 00:00";38
"20.03.2024 00:15";38
"20.03.2024 00:30";38
"20.03.2024 00:45";38
"20.03.2024 01:00";38
"20.03.2024 01:15";38
"20.03.2024 01:30";38
"20.03.2024 01:45";38
"20.03.2024 02:00";38
"20.03.2024 02:15";38
"20.03.2024 02:30";38
"20.03.2024 02:45";38
"20.03.2024 03:00";38
"20.03.2024 03:15";38
"20.03.2024 03:30";38
"20.03.2024 03:45";38
"20.03.2024 04:00";38
"20.03.2024 04:15";38
"20.03.2024 04:30";38
"20.03.2024 04:45";38
"20.03.2024 05:00";38
"20.03.2024 05:15";38
"20.03.2024 05:30";38
"20.03.2024 05:45";38
"20.03.2024 06:00";38
"20.03.2024 06:15";38
"20.03.2024 06:30";38
"20.03.2024 06:45";38
"20.03.2024 07:00";38
"20.03.2024 07:15";38
"20.03.2024 07:30";38
"20.03.2024 07:45";38
"20.03.2024 08:00";38
"20.03.2024 08:15";38
"20.03.2024 08:30";38
"20.03.2024 08:45";38
"20.03.2024 09:00";38
"20.03.2024 09:15";38
"20.03.2024 09:30";38
"20.03.2024 09:45";38
"20.03.2024 10:00";38
"20.03.2024 10:15";38
"20.03.2024 10:30";38
"20.03.2024 10:45";38
"20.03.2024 11:00";38
"20.03.2024 11:15";38
"20.03.2024 11:30";38
"20.03.2024 11:45";38
"20.03.2024 12:00";38
"20.03.2024 12:15";38
"20.03.2024 12:30";38
"20.03.2024 12:45";38
"20.03.2024 13:00";38
"20.03.2024 13:15";38
"20.03.2024 13:30";38
"20.03.2024 13:45";38
"20.03.2024 14:00";38
"20.03.2024 14:15";38
"20.03.2024 14:30";38
"20.03.2024 14:45";38
"20.03.2024 15:00";38
"20.03.2024 15:15";38
"20.03.2024 15:30";38
"20.03.2024 15:45";38
"20.03.2024 16:00";38
"20.03.2024 16:15";38
"20.03.2024 16:30";38
"20.03.2024 16:45";38
"20.03.2024 17:00";38
"20.03.2024 17:15";38
"20.03.2024 17:30";38
"20.03.2024 17:45";38
"20.03.2024 18:00";38
"20.03.2024 18:15";38
"20.03.2024 18:30";38
"20.03.2024 18:45";38
"20.03.2024 19:00";38
"20.03.2024 19:15";38
"20.03.2024 19:30";38
"20.03.2024 19:45";38
"20.03.2024 20:00";38
"20.03.2024 20:15";38
"20.03.2024 20:30";38
"20.03.2024 20:45";38
"20.03.2024 21:00";38
"20.03.2024 21:15";38
"20.03.2024 21:30";38
"20.03.2024 21:45";38
"20.03.2024 22:00";38
"20.03.2024 22:15";38
"20.03.2024 22:30";38
"20.03.2024 22:45";38
"20.03.2024 23:00";38
"20.03.2024 23:15";38
"20.03.2024 23:30";38
"20.03.2024 23:45";38
"21.03.2024 00:00";38
"21.03.2024 00:15";38
"21.03.2024 00:30";38
"21.03.2024 00:45";38
"21.03.2024 01:00";38
"21.03.2024 01:15";38
"21.03.2024 01:30";38
"21.03.2024 01:45";38
"21.03.2024 02:00";38
"21.03.2024 02:15";38
"21.03.2024 02:30";38
"21.03.2024 02:45";38
"21.03.2024 03:00";38
"21.03.2024 03:15";38
"21.03.2024 03:30";38
"21.03.2024 03:45";38
"21.03.2024 04:00";38
"21.03.2024 04:15";38
"21.03.2024 04:30";38
"21.03.2024 04:45";38
"21.03.2024 05:00";38
"21.03.2024 05:15";38
"21.03.2024 05:30";38
"21.03.2024 05:45";38
"21.03.2024 06:00";38
"21.03.2024 06:15";38
"21.03.2024 06:30";38
"21.03.2024 06:45";39
"21.03.2024 07:00";39
"21.03.2024 07:15";39
"21.03.2024 07:30";39
"21.03.2024 07:45";39
"21.03.2024 08:00";39
"21.03.2024 08:15";39
"21.03.2024 08:30";40
"21.03.2024 08:45";40
"21.03.2024 09:00";40
"21.03.2024 09:15";40
"21.03.2024 09:30";40
"21.03.2024 09:45";40
"21.03.2024 10:00";41
"21.03.2024 10:15";41
"21.03.2024 10:30";41
"21.03.2024 10:45";40
"21.03.2024 11:00";40
"21.03.2024 11:15";40
"21.03.2024 11:30";41
"21.03.2024 11:45";40
"21.03.2024 12:00";40
"21.03.2024 12:15";41
"21.03.2024 12:30";40
"21.03.2024 12:45";41
"21.03.2024 13:00";41
"21.03.2024 13:15";40
"21.03.2024 13:30";41
"21.03.2024 13:45";41
"21.03.2024 14:00";41
"21.03.2024 14:15";41
"21.03.2024 14:30";41
"21.03.2024 14:45";41
"21.03.2024 15:00";41
"21.03.2024 15:15";41
"21.03.2024 15:30";41
"21.03.2024 15:45";41
"21.03.2024 16:00";41
"21.03.2024 16:15";41
"21.03.2024 16:30";41
"21.03.2024 16:45";41
"21.03.2024 17:00";40
"21.03.2024 17:15";41
"21.03.2024 17:30";41
"21.03.2024 17:45";40
"21.03.2024 18:00";41
"21.03.2024 18:15";41
"21.03.2024 18:30";41
"21.03.2024 18:45";41
"21.03.2024 19:00";41
"21.03.2024 19:15";41
"21.03.2024 19:30";41
"21.03.2024 19:45";41
"21.03.2024 20:00";41
"21.03.2024 20:15";41
"21.03.2024 20:30";41
"21.03.2024 20:45";41
"21.03.2024 21:00";40
"21.03.2024 21:15";40
"21.03.2024 21:30";40
"21.03.2024 21:45";40
"21.03.2024 22:00";40
"21.03.2024 22:15";40
"21.03.2024 22:30";40
"21.03.2024 22:45";40
"21.03.2024 23:00";40
"21.03.2024 23:15";40
"21.03.2024 23:30";40
"21.03.2024 23:45";40
"22.03.2024 00:00";40
"22.03.2024 00:15";40
"22.03.2024 00:30";40
"22.03.2024 00:45";40
"22.03.2024 01:00";40
"22.03.2024 01:15";40
"22.03.2024 01:30";40
"22.03.2024 01:45";40
"22.03.2024 02:00";40
"22.03.2024 02:15";40
"22.03.2024 02:30";40
"22.03.2024 02:45";40
"22.03.2024 03:00";40
"22.03.2024 03:15";40
"22.03.2024 03:30";40
"22.03.2024 03:45";40
"22.03.2024 04:00";40
"22.03.2024 04:15";40
"22.03.2024 04:30";40
"22.03.2024 04:45";40
"22.03.2024 05:00";40
"22.03.2024 05:15";40
"22.03.2024 05:30";40
"22.03.2024 05:45";40
"22.03.2024 06:00";40
"22.03.2024 06:15";40
"22.03.2024 06:30";40
"22.03.2024 06:45";40
"22.03.2024 07:00";40
"22.03.2024 07:15";40
"22.03.2024 07:30";40
"22.03.2024 07:45";40
"22.03.2024 08:00";40
"22.03.2024 08:15";40
"22.03.2024 08:30";40
"22.03.2024 08:45";40
"22.03.2024 09:00";40
"22.03.2024 09:15";40
"22.03.2024 09:30";40
"22.03.2024 09:45";40
"22.03.2024 10:00";40
"22.03.2024 10:15";40
"22.03.2024 10:30";40
"22.03.2024 10:45";40
"22.03.2024 11:00";40
"22.03.2024 11:15";40
"22.03.2024 11:30";40
"22.03.2024 11:45";40
"22.03.2024 12:00";40
"22.03.2024 12:15";40
"22.03.2024 12:30";40
"22.03.2024 12:45";40
"22.03.2024 13:00";40
"22.03.2024 13:15";40
"22.03.2024 13:30";40
"22.03.2024 13:45";40
"22.03.2024 14:00";40
"22.03.2024 14:15";40
"22.03.2024 14:30";40
"22.03.2024 14:45";40
"22.03.2024 15:00";40
"22.03.2024 15:15";40
"22.03.2024 15:30";40
"22.03.2024 15:45";40
"22.03.2024 16:00";40
"22.03.2024 16:15";40
"22.03.2024 16:30";40
"22.03.2024 16:45";40
"22.03.2024 17:00";40
"22.03.2024 17:15";40
"22.03.2024 17:30";40
"22.03.2024 17:45";41
"22.03.2024 18:00";41
"22.03.2024 18:15";41
"22.03.2024 18:30";41
"22.03.2024 18:45";41
"22.03.2024 19:00";41
"22.03.2024 19:15";41
"22.03.2024 19:30";41
"22.03.2024 19:45";41
"22.03.2024 20:00";41
"22.03.2024 20:15";41
"22.03.2024 20:30";41
"22.03.2024 20:45";41
"22.03.2024 21:00";41
"22.03.2024 21:15";41
"22.03.2024 21:30";41
"22.03.2024 21:45";41
"22.03.2024 22:00";41
"22.03.2024 22:15";41
"22.03.2024 22:30";41
"22.03.2024 22:45";41
"22.03.2024 23:00";41
"22.03.2024 23:15";41
"22.03.2024 23:30";41
"22.03.2024 23:45";41
"23.03.2024 00:00";41
"23.03.2024 00:15";41
"23.03.2024 00:30";41
"23.03.2024 00:45";41
"23.03.2024 01:00";41
"23.03.2024 01:15";41
"23.03.2024 01:30";42
"23.03.2024 01:45";41
"23.03.2024 02:00";42
"23.03.2024 02:15";42
"23.03.2024 02:30";42
"23.03.2024 02:45";42
"23.03.2024 03:00";42
"23.03.2024 03:15";42
"23.03.2024 03:30";42
"23.03.2024 03:45";42
"23.03.2024 04:00";42
"23.03.2024 04:15";42
"23.03.2024 04:30";42
"23.03.2024 04:45";42
"23.03.2024 05:00";42
"23.03.2024 05:15";42
"23.03.2024 05:30";42
"23.03.2024 05:45";42
"23.03.2024 06:00";42
"23.03.2024 06:15";42
"23.03.2024 06:30";42
"23.03.2024 06:45";42
"23.03.2024 07:00";42
"23.03.2024 07:15";42
"23.03.2024 07:30";42
"23.03.2024 07:45";42
"23.03.2024 08:00";42
"23.03.2024 08:15";42
"23.03.2024 08:30";42
"23.03.2024 08:45";42
"23.03.2024 09:00";42
"23.03.2024 09:15";42
"23.03.2024 09:30";43
"23.03.2024 09:45";43
"23.03.2024 10:00";43
"23.03.2024 10:15";43
"23.03.2024 10:30";43
"23.03.2024 10:45";43
"23.03.2024 11:00";43
"23.03.2024 11:15";44
"23.03.2024 11:30";47
"23.03.2024 11:45";49
"23.03.2024 12:00";50
"23.03.2024 12:15";51
"23.03.2024 12:30";51
"23.03.2024 12:45";51
"23.03.2024 13:00";52
"23.03.2024 13:15";52
"23.03.2024 13:30";52
"23.03.2024 13:45";53
"23.03.2024 14:00";53
"23.03.2024 14:15";53
"23.03.2024 14:30";53
"23.03.2024 14:45";53
"23.03.2024 15:00";53
"23.03.2024 15:15";53
"23.03.2024 15:30";53
"23.03.2024 15:45";53
"23.03.2024 16:00";53
"23.03.2024 16:15";53
"23.03.2024 16:30";54
"23.03.2024 16:45";54
"23.03.2024 17:00";54
"23.03.2024 17:15";54
"23.03.2024 17:30";54
"23.03.2024 17:45";54
"23.03.2024 18:00";54
"23.03.2024 18:15";54
"23.03.2024 18:30";54
"23.03.2024 18:45";54
"23.03.2024 19:00";54
"23.03.2024 19:15";54
"23.03.2024 19:30";54
"23.03.2024 19:45";54
"23.03.2024 20:00";54
"23.03.2024 20:15";54
"23.03.2024 20:30";54
"23.03.2024 20:45";54
"23.03.2024 21:00";54
"23.03.2024 21:15";54
"23.03.2024 21:30";54
"23.03.2024 21:45";54
"23.03.2024 22:00";54
"23.03.2024 22:15";54
"23.03.2024 22:30";54
"23.03.2024 22:45";54
"23.03.2024 23:00";54
"23.03.2024 23:15";54
"23.03.2024 23:30";54
"23.03.2024 23:45";54
"24.03.2024 00:00";54
"24.03.2024 00:15";54
"24.03.2024 00:30";54
"24.03.2024 00:45";54
"24.03.2024 01:00";54
"24.03.2024 01:15";54
"24.03.2024 01:30";54
"24.03.2024 01:45";54
"24.03.2024 02:00";54
"24.03.2024 02:15";54
"24.03.2024 02:30";54
"24.03.2024 02:45";54
"24.03.2024 03:00";54
"24.03.2024 03:15";54
"24.03.2024 03:30";54
"24.03.2024 03:45";54
"24.03.2024 04:00";54
"24.03.2024 04:15";54
"24.03.2024 04:30";54
"24.03.2024 04:45";54
"24.03.2024 05:00";54
"24.03.2024 05:15";54
"24.03.2024 05:30";54
"24.03.2024 05:45";54
"24.03.2024 06:00";54
"24.03.2024 06:15";54
"24.03.2024 06:30";54
"24.03.2024 06:45";54
"24.03.2024 07:00";54
"24.03.2024 07:15";54
"24.03.2024 07:30";55
"24.03.2024 07:45";55
"24.03.2024 08:00";55
"24.03.2024 08:15";55
"24.03.2024 08:30";54
"24.03.2024 08:45";54
"24.03.2024 09:00";54
"24.03.2024 09:15";54
"24.03.2024 09:30";54
"24.03.2024 09:45";54
"24.03.2024 10:00";54
"24.03.2024 10:15";54
"24.03.2024 10:30";54
"24.03.2024 10:45";54
"24.03.2024 11:00";54
"24.03.2024 11:15";54
"24.03.2024 11:30";54
"24.03.2024 11:45";54
"24.03.2024 12:00";54
"24.03.2024 12:15";54
"24.03.2024 12:30";54
"24.03.2024 12:45";55
"24.03.2024 13:00";55
"24.03.2024 13:15";55
"24.03.2024 13:30";55
"24.03.2024 13:45";55
"24.03.2024 14:00";55
"24.03.2024 14:15";55
"24.03.2024 14:30";55
"24.03.2024 14:45";55
"24.03.2024 15:00";55
"24.03.2024 15:15";55
"24.03.2024 15:30";55
"24.03.2024 15:45";55
"24.03.2024 16:00";55
"24.03.2024 16:15";55
"24.03.2024 16:30";55
"24.03.2024 16:45";55
"24.03.2024 17:00";56
"24.03.2024 17:15";56
"24.03.2024 17:30";56
"24.03.2024 17:45";56
"24.03.2024 18:00";56
"24.03.2024 18:15";56
"24.03.2024 18:30";56
"24.03.2024 18:45";56
"24.03.2024 19:00";56
"24.03.2024 19:15";56
"24.03.2024 19:30";56
"24.03.2024 19:45";56
"24.03.2024 20:00";56
"24.03.2024 20:15";56
"24.03.2024 20:30";56
"24.03.2024 20:45";56
"24.03.2024 21:00";56
"24.03.2024 21:15";56
"24.03.2024 21:30";56
"24.03.2024 21:45";56
"24.03.2024 22:00";56
"24.03.2024 22:15";56
"24.03.2024 22:30";56
"24.03.2024 22:45";56
"24.03.2024 23:00";56
"24.03.2024 23:15";57
"24.03.2024 23:30";56
"24.03.2024 23:45";57
"25.03.2024 00:00";57
"25.03.2024 00:15";57
"25.03.2024 00:30";57
"25.03.2024 00:45";57
"25.03.2024 01:00";57
"25.03.2024 01:15";57
"25.03.2024 01:30";56
"25.03.2024 01:45";57
"25.03.2024 02:00";57
"25.03.2024 02:15";57
"25.03.2024 02:30";57
"25.03.2024 02:45";57
"25.03.2024 03:00";57
"25.03.2024 03:15";57
"25.03.2024 03:30";57
"25.03.2024 03:45";57
"25.03.2024 04:00";57
"25.03.2024 04:15";57
"25.03.2024 04:30";57
"25.03.2024 04:45";57
"25.03.2024 05:00";57
"25.03.2024 05:15";57
"25.03.2024 05:30";57
"25.03.2024 05:45";57
"25.03.2024 06:00";57
"25.03.2024 06:15";57
"25.03.2024 06:30";57
"25.03.2024 06:45";57
"25.03.2024 07:00";57
"25.03.2024 07:15";57
"25.03.2024 07:30";57
"25.03.2024 07:45";57
"25.03.2024 08:00";57
"25.03.2024 08:15";57
"25.03.2024 08:30";56
"25.03.2024 08:45";57
"25.03.2024 09:00";57
"25.03.2024 09:15";58
"25.03.2024 09:30";62
"25.03.2024 09:45";64
"25.03.2024 10:00";65
"25.03.2024 10:15";66
"25.03.2024 10:30";67
"25.03.2024 10:45";68
"25.03.2024 11:00";68
"25.03.2024 11:15";68
"25.03.2024 11:30";69
"25.03.2024 11:45";69
"25.03.2024 12:00";69
"25.03.2024 12:15";69
"25.03.2024 12:30";69
"25.03.2024 12:45";69
"25.03.2024 13:00";69
"25.03.2024 13:15";69
"25.03.2024 13:30";69
"25.03.2024 13:45";69
"25.03.2024 14:00";69
"25.03.2024 14:15";69
"25.03.2024 14:30";70
"25.03.2024 14:45";69
"25.03.2024 15:00";69
"25.03.2024 15:15";69
"25.03.2024 15:30";69
"25.03.2024 15:45";70
"25.03.2024 16:00";70
"25.03.2024 16:15";70
"25.03.2024 16:30";70
"25.03.2024 16:45";70
"25.03.2024 17:00";70
"25.03.2024 17:15";70
"25.03.2024 17:30";70
"25.03.2024 17:45";70
"25.03.2024 18:00";69
"25.03.2024 18:15";69
"25.03.2024 18:30";69
"25.03.2024 18:45";69
"25.03.2024 19:00";69
"25.03.2024 19:15";69
"25.03.2024 19:30";69
"25.03.2024 19:45";69
"25.03.2024 20:00";69
"25.03.2024 20:15";69
"25.03.2024 20:30";69
"25.03.2024 20:45";69
"25.03.2024 21:00";69
"25.03.2024 21:15";69
"25.03.2024 21:30";69
"25.03.2024 21:45";69
"25.03.2024 22:00";69
"25.03.2024 22:15";69
"25.03.2024 22:30";69
"25.03.2024 22:45";69
"25.03.2024 23:00";69
"25.03.2024 23:15";69
"25.03.2024 23:30";69
"25.03.2024 23:45";69
"26.03.2024 00:00";69
"26.03.2024 00:15";69
"26.03.2024 00:30";69
"26.03.2024 00:45";69
"26.03.2024 01:00";69
"26.03.2024 01:15";69
"26.03.2024 01:30";69
"26.03.2024 01:45";69
"26.03.2024 02:00";69
"26.03.2024 02:15";69
"26.03.2024 02:30";69
"26.03.2024 02:45";69
"26.03.2024 03:00";69
"26.03.2024 03:15";69
"26.03.2024 03:30";69
"26.03.2024 03:45";69
"26.03.2024 04:00";69
"26.03.2024 04:15";69
"26.03.2024 04:30";69
"26.03.2024 04:45";69
"26.03.2024 05:00";69
"26.03.2024 05:15";69
"26.03.2024 05:30";69
"26.03.2024 05:45";69
"26.03.2024 06:00";69
"26.03.2024 06:15";69
"26.03.2024 06:30";69
"26.03.2024 06:45";69
"26.03.2024 07:00";69
"26.03.2024 07:15";69
"26.03.2024 07:30";69
"26.03.2024 07:45";69
"26.03.2024 08:00";69
"26.03.2024 08:15";69
"26.03.2024 08:30";69
"26.03.2024 08:45";69
"26.03.2024 09:00";69
"26.03.2024 09:15";69
"26.03.2024 09:30";69
"26.03.2024 09:45";69
"26.03.2024 10:00";69
"26.03.2024 10:15";69
"26.03.2024 10:30";69
"26.03.2024 10:45";69
"26.03.2024 11:00";69
"26.03.2024 11:15";69
"26.03.2024 11:30";69
"26.03.2024 11:45";69
"26.03.2024 12:00";69
"26.03.2024 12:15";69
"26.03.2024 12:30";69
"26.03.2024 12:45";68
"26.03.2024 13:00";68
"26.03.2024 13:15";68
"26.03.2024 13:30";68
"26.03.2024 13:45";68
"26.03.2024 14:00";67
"26.03.2024 14:15";67
"26.03.2024 14:30";67
"26.03.2024 14:45";67
"26.03.2024 15:00";67
"26.03.2024 15:15";67
"26.03.2024 15:30";67
"26.03.2024 15:45";67
"26.03.2024 16:00";67
"26.03.2024 16:15";67
"26.03.2024 16:30";67
"26.03.2024 16:45";67
"26.03.2024 17:00";67
"26.03.2024 17:15";67
"26.03.2024 17:30";67
"26.03.2024 17:45";67
"26.03.2024 18:00";67
"26.03.2024 18:15";67
"26.03.2024 18:30";67
"26.03.2024 18:45";66
"26.03.2024 19:00";67
"26.03.2024 19:15";67
"26.03.2024 19:30";67
"26.03.2024 19:45";67
"26.03.2024 20:00";67
"26.03.2024 20:15";67
"26.03.2024 20:30";67
"26.03.2024 20:45";67
"26.03.2024 21:00";67
"26.03.2024 21:15";67
"26.03.2024 21:30";67
"26.03.2024 21:45";67
"26.03.2024 22:00";67
"26.03.2024 22:15";67
"26.03.2024 22:30";67
"26.03.2024 22:45";67
"26.03.2024 23:00";67
"26.03.2024 23:15";67
"26.03.2024 23:30";67
"26.03.2024 23:45";67
"27.03.2024 00:00";67
"27.03.2024 00:15";67
"27.03.2024 00:30";67
"27.03.2024 00:45";67
"27.03.2024 01:00";67
"27.03.2024 01:15";67
"27.03.2024 01:30";67
"27.03.2024 01:45";67
"27.03.2024 02:00";67
"27.03.2024 02:15";66
"27.03.2024 02:30";66
"27.03.2024 02:45";67
"27.03.2024 03:00";67
"27.03.2024 03:15";66
"27.03.2024 03:30";67
"27.03.2024 03:45";66
"27.03.2024 04:00";67
"27.03.2024 04:15";67
"27.03.2024 04:30";67
"27.03.2024 04:45";66
"27.03.2024 05:00";67
"27.03.2024 05:15";67
"27.03.2024 05:30";67
"27.03.2024 05:45";67
"27.03.2024 06:00";66
"27.03.2024 06:15";66
"27.03.2024 06:30";67
"27.03.2024 06:45";66
"27.03.2024 07:00";66
"27.03.2024 07:15";66
"27.03.2024 07:30";66
"27.03.2024 07:45";66
"27.03.2024 08:00";66
"27.03.2024 08:15";66
"27.03.2024 08:30";67
"27.03.2024 08:45";67
"27.03.2024 09:00";68
"27.03.2024 09:15";68
"27.03.2024 09:30";68
"27.03.2024 09:45";68
"27.03.2024 10:00";68
"27.03.2024 10:15";68
"27.03.2024 10:30";68
"27.03.2024 10:45";69
"27.03.2024 11:00";69
"27.03.2024 11:15";69
"27.03.2024 11:30";69
"27.03.2024 11:45";69
"27.03.2024 12:00";69
"27.03.2024 12:15";69
"27.03.2024 12:30";69
"27.03.2024 12:45";69
"27.03.2024 13:00";69
"27.03.2024 13:15";69
"27.03.2024 13:30";69
"27.03.2024 13:45";69
"27.03.2024 14:00";69
"27.03.2024 14:15";69
"27.03.2024 14:30";70
"27.03.2024 14:45";70
"27.03.2024 15:00";70
"27.03.2024 15:15";69
"27.03.2024 15:30";70
"27.03.2024 15:45";69
"27.03.2024 16:00";70
"27.03.2024 16:15";70
"27.03.2024 16:30";70
"27.03.2024 16:45";70
"27.03.2024 17:00";70
"27.03.2024 17:15";70
"27.03.2024 17:30";70
"27.03.2024 17:45";70
"27.03.2024 18:00";70
"27.03.2024 18:15";70
"27.03.2024 18:30";70
"27.03.2024 18:45";70
"27.03.2024 19:00";70
"27.03.2024 19:15";70
"27.03.2024 19:30";70
"27.03.2024 19:45";70
"27.03.2024 20:00";70
"27.03.2024 20:15";70
"27.03.2024 20:30";70
"27.03.2024 20:45";70
"27.03.2024 21:00";70
"27.03.2024 21:15";70
"27.03.2024 21:30";70
"27.03.2024 21:45";70
"27.03.2024 22:00";70
"27.03.2024 22:15";70
"27.03.2024 22:30";70
"27.03.2024 22:45";70
"27.03.2024 23:00";70
"27.03.2024 23:15";70
"27.03.2024 23:30";70
"27.03.2024 23:45";70
"28.03.2024 00:00";70
"28.03.2024 00:15";70
"28.03.2024 00:30";70
"28.03.2024 00:45";70
"28.03.2024 01:00";70
"28.03.2024 01:15";70
"28.03.2024 01:30";70
"28.03.2024 01:45";70
"28.03.2024 02:00";70
"28.03.2024 02:15";70
"28.03.2024 02:30";70
"28.03.2024 02:45";70
"28.03.2024 03:00";70
"28.03.2024 03:15";70
"28.03.2024 03:30";70
"28.03.2024 03:45";70
"28.03.2024 04:00";70
"28.03.2024 04:15";70
"28.03.2024 04:30";70
"28.03.2024 04:45";70
"28.03.2024 05:00";70
"28.03.2024 05:15";70
"28.03.2024 05:30";70
"28.03.2024 05:45";70
"28.03.2024 06:00";70
"28.03.2024 06:15";70
"28.03.2024 06:30";70
"28.03.2024 06:45";70
"28.03.2024 07:00";70
"28.03.2024 07:15";70
"28.03.2024 07:30";70
"28.03.2024 07:45";70
"28.03.2024 08:00";70
"28.03.2024 08:15";70
"28.03.2024 08:30";70
"28.03.2024 08:45";70
"28.03.2024 09:00";70
"28.03.2024 09:15";69
"28.03.2024 09:30";69
"28.03.2024 09:45";69
"28.03.2024 10:00";70
"28.03.2024 10:15";69
"28.03.2024 10:30";70
"28.03.2024 10:45";69
"28.03.2024 11:00";69
"28.03.2024 11:15";69
"28.03.2024 11:30";69
"28.03.2024 11:45";70
"28.03.2024 12:00";69
"28.03.2024 12:15";69
"28.03.2024 12:30";70
"28.03.2024 12:45";70
"28.03.2024 13:00";69
"28.03.2024 13:15";70
"28.03.2024 13:30";70
"28.03.2024 13:45";70
"28.03.2024 14:00";70
"28.03.2024 14:15";70
"28.03.2024 14:30";70
"28.03.2024 14:45";70
"28.03.2024 15:00";70
"28.03.2024 15:15";70
"28.03.2024 15:30";70
"28.03.2024 15:45";70
"28.03.2024 16:00";70
"28.03.2024 16:15";70
"28.03.2024 16:30";70
"28.03.2024 16:45";70
"28.03.2024 17:00";70
"28.03.2024 17:15";70
"28.03.2024 17:30";70
"28.03.2024 17:45";70
"28.03.2024 18:00";70
"28.03.2024 18:15";70
"28.03.2024 18:30";70
"28.03.2024 18:45";70
"28.03.2024 19:00";70
"28.03.2024 19:15";70
"28.03.2024 19:30";70
"28.03.2024 19:45";70
"28.03.2024 20:00";70
"28.03.2024 20:15";70
"28.03.2024 20:30";70
"28.03.2024 20:45";70
"28.03.2024 21:00";70
"28.03.2024 21:15";70
"28.03.2024 21:30";70
"28.03.2024 21:45";70
"28.03.2024 22:00";70
"28.03.2024 22:15";70
"28.03.2024 22:30";70
"28.03.2024 22:45";70
"28.03.2024 23:00";70
"28.03.2024 23:15";70
"28.03.2024 23:30";70
"28.03.2024 23:45";70
"29.03.2024 00:00";70
"29.03.2024 00:15";70
"29.03.2024 00:30";70
"29.03.2024 00:45";70
"29.03.2024 01:00";70
"29.03.2024 01:15";70
"29.03.2024 01:30";70
"29.03.2024 01:45";70
"29.03.2024 02:00";70
"29.03.2024 02:15";70
"29.03.2024 02:30";70
"29.03.2024 02:45";70
"29.03.2024 03:00";70
"29.03.2024 03:15";70
"29.03.2024 03:30";70
"29.03.2024 03:45";70
"29.03.2024 04:00";70
"29.03.2024 04:15";70
"29.03.2024 04:30";70
"29.03.2024 04:45";70
"29.03.2024 05:00";70
"29.03.2024 05:15";70
"29.03.2024 05:30";70
"29.03.2024 05:45";70
"29.03.2024 06:00";70
"29.03.2024 06:15";70
"29.03.2024 06:30";70
"29.03.2024 06:45";70
"29.03.2024 07:00";70
"29.03.2024 07:15";70
"29.03.2024 07:30";70
"29.03.2024 07:45";70
"29.03.2024 08:00";70
"29.03.2024 08:15";70
"29.03.2024 08:30";70
"29.03.2024 08:45";70
"29.03.2024 09:00";70
"29.03.2024 09:15";71
"29.03.2024 09:30";70
"29.03.2024 09:45";70
"29.03.2024 10:00";71
"29.03.2024 10:15";71
"29.03.2024 10:30";71
"29.03.2024 10:45";70
"29.03.2024 11:00";70
"29.03.2024 11:15";70
"29.03.2024 11:30";69
"29.03.2024 11:45";70
"29.03.2024 12:00";69
"29.03.2024 12:15";69
"29.03.2024 12:30";69
"29.03.2024 12:45";69
"29.03.2024 13:00";69
"29.03.2024 13:15";69
"29.03.2024 13:30";69
"29.03.2024 13:45";70
"29.03.2024 14:00";70
"29.03.2024 14:15";70
"29.03.2024 14:30";70
"29.03.2024 14:45";70
"29.03.2024 15:00";70
"29.03.2024 15:15";70
"29.03.2024 15:30";70
"29.03.2024 15:45";70
"29.03.2024 16:00";70
"29.03.2024 16:15";70
"29.03.2024 16:30";70
"29.03.2024 16:45";70
"29.03.2024 17:00";70
"29.03.2024 17:15";70
"29.03.2024 17:30";70
"29.03.2024 17:45";70
"29.03.2024 18:00";70
"29.03.2024 18:15";70
"29.03.2024 18:30";70
"29.03.2024 18:45";70
"29.03.2024 19:00";70
"29.03.2024 19:15";70
"29.03.2024 19:30";70
"29.03.2024 19:45";70
"29.03.2024 20:00";70
"29.03.2024 20:15";70
"29.03.2024 20:30";70
"29.03.2024 20:45";70
"29.03.2024 21:00";70
"29.03.2024 21:15";70
"29.03.2024 21:30";70
"29.03.2024 21:45";70
"29.03.2024 22:00";70
"29.03.2024 22:15";70
"29.03.2024 22:30";70
"29.03.2024 22:45";71
"29.03.2024 23:00";70
"29.03.2024 23:15";70
"29.03.2024 23:30";71
"29.03.2024 23:45";70
"30.03.2024 00:00";70
"30.03.2024 00:15";70
"30.03.2024 00:30";71
"30.03.2024 00:45";70
"30.03.2024 01:00";70
"30.03.2024 01:15";70
"30.03.2024 01:30";70
"30.03.2024 01:45";70
"30.03.2024 02:00";71
"30.03.2024 02:15";70
"30.03.2024 02:30";70
"30.03.2024 02:45";70
"30.03.2024 03:00";71
"30.03.2024 03:15";70
"30.03.2024 03:30";71
"30.03.2024 03:45";71
"30.03.2024 04:00";70
"30.03.2024 04:15";70
"30.03.2024 04:30";70
"30.03.2024 04:45";71
"30.03.2024 05:00";70
"30.03.2024 05:15";71
"30.03.2024 05:30";70
"30.03.2024 05:45";70
"30.03.2024 06:00";70
"30.03.2024 06:15";70
"30.03.2024 06:30";70
"30.03.2024 06:45";71
"30.03.2024 07:00";71
"30.03.2024 07:15";71
"30.03.2024 07:30";70
"30.03.2024 07:45";71
"30.03.2024 08:00";71
"30.03.2024 08:15";71
"30.03.2024 08:30";71
"30.03.2024 08:45";71
"30.03.2024 09:00";71
"30.03.2024 09:15";70
"30.03.2024 09:30";70
"30.03.2024 09:45";70
"30.03.2024 10:00";70
"30.03.2024 10:15";70
"30.03.2024 10:30";70
"30.03.2024 10:45";70
"30.03.2024 11:00";70
"30.03.2024 11:15";70
"30.03.2024 11:30";70
"30.03.2024 11:45";70
"30.03.2024 12:00";70
"30.03.2024 12:15";70
"30.03.2024 12:30";71
"30.03.2024 12:45";71
"30.03.2024 13:00";71
"30.03.2024 13:15";71
"30.03.2024 13:30";71
"30.03.2024 13:45";71
"30.03.2024 14:00";71
"30.03.2024 14:15";71
"30.03.2024 14:30";71
"30.03.2024 14:45";71
"30.03.2024 15:00";71
"30.03.2024 15:15";71
"30.03.2024 15:30";71
"30.03.2024 15:45";71
"30.03.2024 16:00";71
"30.03.2024 16:15";71
"30.03.2024 16:30";71
"30.03.2024 16:45";71
"30.03.2024 17:00";71
"30.03.2024 17:15";71
"30.03.2024 17:30";71
"30.03.2024 17:45";71
"30.03.2024 18:00";71
"30.03.2024 18:15";71
"30.03.2024 18:30";71
"30.03.2024 18:45";71
"30.03.2024 19:00";71
"30.03.2024 19:15";71
"30.03.2024 19:30";71
"30.03.2024 19:45";71
"30.03.2024 20:00";71
"30.03.2024 20:15";71
"30.03.2024 20:30";71
"30.03.2024 20:45";71
"30.03.2024 21:00";71
"30.03.2024 21:15";71
"30.03.2024 21:30";71
"30.03.2024 21:45";71
"30.03.2024 22:00";71
"30.03.2024 22:15";71
"30.03.2024 22:30";71
"30.03.2024 22:45";71
"30.03.2024 23:00";71
"30.03.2024 23:15";71
"30.03.2024 23:30";71
"30.03.2024 23:45";71
"31.03.2024 00:00";71
"31.03.2024 00:15";71
"31.03.2024 00:30";71
"31.03.2024 00:45";71
"31.03.2024 01:00";71
"31.03.2024 01:15";71
"31.03.2024 01:30";71
"31.03.2024 01:45";71
"31.03.2024 02:00";71
"31.03.2024 02:15";71
"31.03.2024 02:30";71
"31.03.2024 02:45";71
"31.03.2024 03:00";71
"31.03.2024 03:15";71
"31.03.2024 03:30";71
"31.03.2024 03:45";71
"31.03.2024 04:00";71
"31.03.2024 04:15";71
"31.03.2024 04:30";71
"31.03.2024 04:45";71
"31.03.2024 05:00";71
"31.03.2024 05:15";71
"31.03.2024 05:30";71
"31.03.2024 05:45";71
"31.03.2024 06:00";71
"31.03.2024 06:15";71
"31.03.2024 06:30";71
"31.03.2024 06:45";71
"31.03.2024 07:00";71